TimePST,TemperatureF,Dew PointF,Humidity,Sea Level PressureIn,VisibilityMPH,Wind Direction,Wind SpeedMPH,Gust SpeedMPH,PrecipitationIn,Events,Conditions,WindDirDegrees,DateUTC
12:00 AM,33.8,32.0,93,30.33,10.0,NNW,3.5,-,N/A,,Partly Cloudy,340,2013-03-04 08:00:00
1:00 AM,33.8,32.0,93,30.33,10.0,North,4.6,-,N/A,,Partly Cloudy,360,2013-03-04 09:00:00
2:00 AM,32.0,32.0,100,30.33,10.0,Calm,Calm,-,N/A,,Clear,0,2013-03-04 10:00:00
3:00 AM,30.2,30.2,100,30.33,10.0,Calm,Calm,-,N/A,,Clear,0,2013-03-04 11:00:00
4:00 AM,30,30,98,30.32,12,Calm,Calm,,,,,,2013-03-04 12:00:00
4:00 AM,30.2,30.2,100,30.32,12.0,NNE,2.3,-,N/A,,Clear,30,2013-03-04 12:00:00
5:00 AM,30.2,30.2,100,30.30,10.0,Calm,Calm,-,N/A,,Partly Cloudy,0,2013-03-04 13:00:00
6:00 AM,30.2,30.2,100,30.30,20.0,ENE,3.5,-,N/A,,Partly Cloudy,60,2013-03-04 14:00:00
7:00 AM,32.0,32.0,100,30.29,30.0,North,5.8,-,N/A,,Scattered Clouds,360,2013-03-04 15:00:00
8:00 AM,35.6,32.0,87,30.28,30.0,NNE,5.8,-,N/A,,Mostly Cloudy,30,2013-03-04 16:00:00
9:00 AM,39.2,35.6,87,30.27,30.0,NNE,4.6,-,N/A,,Mostly Cloudy,30,2013-03-04 17:00:00
10:00 AM,43,34,61,30.26,28,NNW,3.5,,,,Scattered Clouds,340,2013-03-04 18:00:00
10:00 AM,42.8,33.8,70,30.26,30.0,NNW,4.6,-,N/A,,Mostly Cloudy,340,2013-03-04 18:00:00
11:00 AM,46.4,33.8,62,30.24,30.0,ENE,8.1,-,N/A,,Mostly Cloudy,70,2013-03-04 19:00:00
12:00 PM,50.0,33.8,54,30.21,30.0,East,8.1,-,N/A,,Mostly Cloudy,80,2013-03-04 20:00:00
1:00 PM,50.0,30.2,47,30.18,30.0,East,11.5,18.4,N/A,,Mostly Cloudy,80,2013-03-04 21:00:00
2:00 PM,51.8,30.2,44,30.15,30.0,East,10.4,-,N/A,,Mostly Cloudy,90,2013-03-04 22:00:00
3:00 PM,51.8,21.2,30,30.12,30.0,NNE,8.1,-,N/A,,Mostly Cloudy,30,2013-03-04 23:00:00
4:00 PM,51,25,24,30.10,28,NE,12.7,,,,Scattered Clouds,40,2013-03-05 00:00:00
4:00 PM,51.8,24.8,35,30.10,30.0,NE,13.8,-,N/A,,Mostly Cloudy,40,2013-03-05 00:00:00
5:00 PM,50.0,24.8,37,30.07,30.0,NE,13.8,-,N/A,,Mostly Cloudy,40,2013-03-05 01:00:00
6:00 PM,48.2,24.8,40,30.06,30.0,NE,8.1,-,N/A,,Overcast,40,2013-03-05 02:00:00
7:00 PM,44.6,26.6,49,30.06,15.0,NE,6.9,-,N/A,,Mostly Cloudy,50,2013-03-05 03:00:00
8:00 PM,42.8,26.6,53,30.04,10.0,NE,5.8,-,N/A,,Partly Cloudy,40,2013-03-05 04:00:00
9:00 PM,42.8,26.6,53,30.03,10.0,NE,5.8,-,N/A,,Partly Cloudy,50,2013-03-05 05:00:00
10:00 PM,41,27,45,30.04,10,NNE,4.6,,,,Clear,30,2013-03-05 06:00:00
10:00 PM,41.0,26.6,57,30.04,10.0,NNE,4.6,-,N/A,,Partly Cloudy,30,2013-03-05 06:00:00
11:00 PM,41.0,28.4,61,30.03,10.0,NE,5.8,-,N/A,,Partly Cloudy,40,2013-03-05 07:00:00